Adams Field
KLIT : now visible

Airfield :











YOU CAN JOIN US ON...

 
LOGIN :

Register | Disclaimer

   EN    FR    IT 

 









Legend :    VFR   Marginal VFR   IFR   Intensive IFR   Very Intensive IFR
Visi :
Ceiling :
>= 8 km
>= 3000ft
5 to 8 km
1000 to 3000 ft
1500m to 5 km
500 to 1000 ft
800 to 1500m
200 to 500 ft
< 800m
< 200 ft
Symbols :   Thunderstorms  Fog  Heavy snow  Heavy precipitations  Wind > 20 kt






- Airport Elevation : 262 ft
- IATA code : LIT


KLIT - Adams Field

CURRENT METAR :
  • 011753Z 13008KT 10SM BKN049 32/18 A2999 RMK AO2 SLP153 T03170178 10317 20217 58006

EXPIRED METARs :
  • 011653Z 07004KT 10SM SCT046 SCT060 29/18 A3000 RMK AO2 SLP157 T02940178
  • 011553Z VRB04KT 10SM FEW038 30/18 A3000 RMK AO2 SLP158 T03000183

TAF KLIT
Valid from the 01 at 18:00 until the 02 at 18:00 UTC


011720Z 0118/0218 11007KT P6SM FEW040 SCT060 BKN250
FM020000 VRB03KT P6SM FEW120 SCT250
KZME FIR / North America



MET'MAP, your aeronautical weather chart ! - Copyright ORBIFLY December 2007 - Disclaimer

ORBIFLY MET'MAP TEAM :

Programming & Development : Alexandra Zaïnal
Original concept : Baudouin d'Aumeries
Technical & hardware support : Manuel Goepfert
Assistance : Marc-Olivier Méhu




SOURCES & CREDITS :

   NOAA       Earth
Advisory